Geely Xingzuo 04 zu 01 xing

operational
NORAD ID: 65119 Int'l Des: 2025-170 Owner: GEESP Country: CN Constellation: geesatcom
LEOCIRCULAR

Über Geely Xingzuo 04 zu 01 xing

Beschreibung wird geladen...

Live-Position

3D-Globus wird geladen...

Nächste Überflüge

Höhenverlauf

Altitude vs Time

uPlot chart will show altitude changes over time

Zweizeiliger Elementsatz

1 65119U 25170A 25341.28590387 .00004824 00000-0 61014-3 0 9997
2 65119 49.9883 344.0729 0011106 32.7474 327.4151 14.83271089 17947
Epoch: 7. Dez. 2025 • Age: 12 hours

Aktueller Status

Höhe 622.4 km
Geschwindigkeit 7.55 km/s
Subsatellitenpunkt 26.96°N, 137.47°E
Startdatum 8. Aug. 2025
Alter 0.3 years
Typ other

Technische Details

Klassifizierung Payload
Masse 130.00 kg
Trockenmasse 130.00 kg
Gesamtmasse 130.00 kg
Länge 1.00 m
Durchmesser 0.50 m
Spannweite 2.00 m
Form Box + 2 pan
Hersteller GWCG
Bus-Typ GPS100
Phasenstatus In Orbit
Besitzer/Staat GEESP/CN

Große Konstellationen

Loading constellations...